PROFILE

 METAR AND TAF INFORMATION
ADDS - METARS form results

(0524 UTC 13 July 2020)
http://aviationweather.gov/metar/data/
 
ENBR 130520Z 18003KT 9000 -DZ FEW004 SCT009 BKN015 11/11 Q1019 TEMPO 4000 DZRA BR BKN008 RMK WIND 1200FT 22007KT
ENBR 130450Z 12004KT 9999 VCSH FEW005 SCT011 BKN020 11/11 Q1019 TEMPO 4000 DZRA BR BKN008 RMK WIND 1200FT 24008KT
TAF ENBR 1300/1324 VRB05KT 9999 BKN025 TEMPO 1300/1310 3000 DZRA BR BKN005 BECMG 1306/1308 18012KT TEMPO 1315/1324 SHRA BKN008 FEW020CB 

 AIRPORT MAP

 RUNWAY INFORMATION
Runway 17 Runway length 9810 ft Runway width 148 ft
Runway elevation 165 ft Runway displaced threshold 886 ft Runway heading 171
Runway 35 Runway length 9810 ft Runway width 148 ft
Runway elevation 146 ft Runway displaced threshold 889 ft Runway heading 351

 AIRPORT FREQUENCIES
Type APP Name RADAR Frequency 121 MHZ
Type ARR Name ARR Frequency 125 MHZ
Type ATIS Name ATIS Frequency 125.25 MHZ
Type DIR Name DIRECTOR Frequency 118.85 MHZ
Type GND Name GND Frequency 121.9 MHZ
Type TWR Name TWR Frequency 119.1 MHZ

 AIRPORT NEAR NAVIGATION AIDS
Type NDB Name Askoy Frequency 360 KHZ
Type NDB Name Bratta Frequency 336 KHZ
Type TACAN Name Flesland Frequency 114500 KHZ
Type VOR-DME Name Flesland Frequency 115550 KHZ
Type VOR-DME Name Vollo Frequency 114850 KHZ